Location: ?????? ??????
(44.3742°N, 135.2221°E)
Time: 08:07:59
(UTC+00:00)

Meteor 1-11 Rocket - Pass Details

Date: 19 May 2025
Orbit: 830 x 914 km, 81.2° (Epoch: 23 June)

Event Time Altitude Azimuth Distance (km) Brightness Sun altitude
Rises 14:12:12 0° 343° (NNW) 3,384 8.2 -25.0°
Reaches altitude 10° 14:14:43 10° 336° (NNW) 2,445 7.1 -25.0°
Maximum altitude 14:19:52 42° 267° (W) 1,176 4.4 -25.2°
Enters shadow 14:20:50 38° 241° (WSW) 1,243 4.4 -25.2°
